Location: Wells
(51.2093°N, 2.6446°W)
Time: 07:06:08
(UTC+01:00)

PCSat - Pass Details

Date: 11 March 2026
Orbit: 780 x 790 km, 67.1° (Epoch: 13 April)

Event Time Altitude Azimuth Distance (km) Brightness Sun altitude
Exits shadow 00:57:49 16° 29° (NNE) 1,996 12.2 -41.9°
Drops below altitude 10° 00:58:50 10° 32° (NNE) 2,364 12.6 -41.9°
Sets 01:01:19 0° 37° (NE) 3,297 13.5 -41.8°
